Dewpoint
53 54 54 54 54 54 55 55 56 56 56 56 56 56 57 57 57 57 57 57 57 58 58 58 59 59 59 60 60 60 59 47 43 41 35 36 53 64 66 65 65 63 57 34 33 29 29 29 29 32 35 34 35 34 36 37 37 31 24 21 13 10 16 22 24 24 24 21 21 22 20 20 20 20 21 21 21 21 21 21 21 21 20 23 23 31 37 46
53 54 53 54 54 54 54 54 55 56 56 56 56 56 56 56 57 57 57 57 57 58 58 59 59 59 59 60 60 60 55 44 36 34 34 49 67 67 66 66 65 61 48 32 30 30 28 28 30 31 30 28 36 32 35 33 35 29 26 15 14 23 22 27 25 25 21 21 22 22 23 20 20 21 22 20 19 20 21 22 21 20 20 20 19 21 25 44
53 53 53 53 53 54 54 54 55 56 56 56 55 56 56 56 57 57 57 57 58 58 58 59 59 59 60 60 60 59 49 33 25 23 31 61 68 67 66 66 64 60 36 32 33 29 28 28 30 30 30 27 29 33 34 32 33 33 24 19 24 26 24 28 26 24 23 24 23 23 24 21 22 23 23 21 20 22 21 20 21 19 19 19 20 22 25 33
54 53 53 53 53 54 55 54 55 56 56 56 56 56 56 56 57 58 58 58 58 58 58 58 59 59 59 60 60 56 37 26 23 25 34 63 67 67 67 65 61 49 37 34 32 30 30 30 29 29 29 25 27 32 27 31 25 29 26 22 25 28 23 22 29 27 26 24 24 24 23 24 24 23 22 22 21 20 20 22 21 20 19 20 21 23 29 30
53 54 54 53 53 55 54 54 55 56 56 56 57 56 56 57 57 58 58 58 58 58 58 58 58 59 59 60 59 50 26 19 22 32 38 65 67 66 66 61 54 39 36 32 31 29 29 29 28 29 27 23 26 24 29 33 29 31 26 28 28 30 25 25 28 29 27 26 23 23 24 24 24 26 22 22 20 19 20 22 21 20 21 22 23 24 34 34
54 53 54 54 54 55 54 53 55 56 56 56 57 57 57 57 57 57 58 58 58 58 58 58 58 58 59 59 49 36 25 10 24 30 62 66 66 67 65 60 56 36 34 32 32 31 28 26 27 27 25 20 21 17 17 32 32 24 26 28 30 28 26 27 28 26 26 26 25 24 25 22 22 20 22 22 21 21 22 23 23 23 24 26 34 34 35 35
54 54 54 54 53 55 54 53 55 56 56 56 57 57 58 58 58 57 58 58 58 58 57 58 58 58 58 57 44 31 26 22 34 37 62 65 65 64 61 60 51 37 33 33 31 30 29 25 25 27 23 20 20 20 21 23 30 27 23 27 27 30 28 29 28 29 27 25 23 24 23 21 20 19 21 21 21 22 22 22 23 30 35 35 34 34 34 34
56 55 54 54 54 54 55 54 55 56 56 57 57 58 58 58 58 58 58 58 57 57 57 57 58 58 57 42 36 35 34 31 33 44 60 59 53 55 52 43 40 38 32 31 30 29 27 25 25 27 21 18 18 22 24 23 27 30 28 29 28 24 28 28 26 23 22 22 23 23 21 20 20 20 20 19 20 21 21 21 27 33 34 33 33 33 33 33
54 54 54 54 54 54 54 54 55 55 56 57 57 58 58 58 58 58 58 58 57 57 58 58 57 58 56 41 35 31 29 39 41 51 55 49 46 43 41 37 38 34 34 34 33 32 29 27 26 22 17 21 23 22 24 21 21 29 26 26 23 21 22 22 22 21 21 21 22 20 19 20 20 22 20 20 20 21 21 27 31 33 32 32 32 32 32 32
56 56 55 54 54 54 54 54 55 56 56 57 57 58 58 58 58 58 58 57 57 57 57 57 57 57 44 38 35 29 34 44 57 58 54 48 43 42 43 41 37 35 32 34 29 28 27 27 27 27 25 26 24 23 25 23 22 27 27 25 22 21 21 23 21 21 22 22 21 19 19 19 20 20 17 19 20 21 23 30 33 32 31 31 31 31 32 31
59 57 56 56 54 54 54 54 55 55 56 57 58 58 58 58 58 58 57 57 57 57 57 57 57 50 41 36 32 30 41 49 54 56 51 45 42 40 42 43 39 37 36 37 32 28 29 29 33 30 30 23 25 24 23 23 23 23 22 21 21 21 21 21 21 20 20 20 21 20 19 20 19 22 18 19 20 20 24 29 32 32 31 31 31 31 31 31
59 58 57 56 55 54 54 55 55 55 56 57 58 58 58 58 58 58 57 56 56 56 57 58 56 51 38 35 32 32 45 46 53 50 48 46 46 45 44 45 41 40 35 33 37 41 36 33 32 26 22 27 23 24 23 24 24 24 21 20 20 21 20 21 20 21 24 20 20 20 19 19 20 18 21 20 20 19 23 28 31 31 31 31 30 30 30 30
59 58 57 56 55 54 55 55 55 56 57 58 58 58 58 58 58 58 56 56 57 56 56 58 53 48 35 29 31 40 42 46 52 47 46 48 47 46 45 44 44 40 37 35 37 39 42 35 31 27 30 26 25 24 25 25 24 21 20 20 19 21 20 22 22 22 22 21 21 20 19 20 21 20 20 20 19 19 23 28 31 31 30 30 30 29 29 30
58 58 57 56 54 54 55 55 55 56 57 58 58 58 58 58 58 57 56 56 57 57 58 56 50 42 29 27 32 38 44 51 50 47 46 47 42 43 44 41 41 41 43 38 39 42 41 38 34 31 32 27 25 32 24 24 24 22 21 22 19 20 21 22 23 21 22 22 19 20 20 20 21 21 22 21 21 21 24 30 31 30 29 29 29 29 29 29
58 57 57 55 55 55 55 55 56 57 57 58 58 58 58 58 58 56 56 56 56 55 56 54 46 35 32 31 38 41 54 49 50 48 48 43 42 42 41 37 37 37 36 36 37 41 39 37 33 29 28 28 27 25 22 23 24 26 20 22 25 20 23 24 26 24 22 19 19 19 20 19 19 20 21 23 24 23 28 30 30 29 29 29 28 28 28 28
58 57 57 56 55 54 54 55 56 58 58 58 58 59 59 58 57 56 57 56 53 57 50 46 48 35 28 27 34 48 42 42 44 45 43 45 42 40 42 38 38 34 34 32 36 32 32 33 30 28 26 26 23 25 23 24 25 25 20 23 22 21 21 22 23 25 24 19 18 19 20 18 21 22 21 25 23 23 29 30 29 29 29 28 28 28 28 28
57 58 57 57 56 55 55 56 57 58 59 59 59 59 59 59 57 57 56 56 53 51 49 44 48 39 29 35 37 34 33 38 43 42 41 42 42 40 38 37 35 32 33 32 34 33 30 28 29 27 27 24 24 25 22 23 21 21 23 20 24 21 21 21 23 25 26 24 22 22 18 18 20 20 21 27 24 25 30 29 29 29 28 28 28 27 27 27
58 58 58 57 56 55 56 57 58 58 59 59 59 58 57 57 57 57 56 52 51 48 46 47 45 34 28 37 32 32 42 41 42 42 41 40 41 37 35 32 33 30 31 29 29 29 31 28 29 27 25 24 21 23 23 21 22 21 22 21 21 23 21 21 21 24 24 24 23 23 21 19 20 22 24 30 30 29 30 29 28 28 28 27 27 27 27 27
58 58 57 57 56 55 56 58 58 58 58 59 59 57 57 55 50 51 51 46 41 37 33 35 32 28 27 32 36 43 44 43 42 41 40 40 40 37 36 34 32 28 27 27 26 26 29 29 29 24 23 22 21 21 23 24 23 22 24 23 24 23 24 23 23 24 24 23 23 23 23 23 24 24 24 31 30 29 29 29 28 28 28 27 27 27 26 26
59 58 58 57 56 56 57 58 58 58 59 58 57 54 47 44 41 42 43 45 41 37 36 36 36 35 35 34 37 43 42 40 38 39 41 41 36 34 32 31 33 31 25 26 28 28 30 25 23 23 23 23 22 22 22 23 23 24 26 25 25 25 25 25 24 25 24 24 23 23 23 23 22 23 30 30 30 29 28 28 28 27 27 27 27 27 26 26
59 58 58 57 56 57 58 58 58 59 59 58 56 48 42 42 34 32 40 43 45 44 41 40 37 36 34 37 39 39 35 35 40 39 40 43 38 30 30 29 30 27 30 31 29 27 26 23 24 25 24 23 23 22 22 21 22 22 23 23 22 24 22 23 23 25 26 24 23 22 23 24 24 27 29 29 29 29 29 27 27 27 27 27 27 26 26 27
58 58 58 57 57 57 57 58 59 59 59 57 53 47 43 43 43 42 41 39 42 43 44 43 41 39 41 37 39 39 37 34 36 38 40 40 34 29 29 29 28 26 30 29 28 26 24 24 24 25 25 26 25 23 22 21 22 23 22 23 23 23 25 25 25 27 26 24 23 24 23 24 25 29 29 28 28 29 29 29 28 27 27 27 27 26 26 25
58 58 58 58 57 57 58 59 59 59 57 55 52 47 43 44 45 45 43 39 40 42 42 42 41 41 41 42 40 38 34 34 34 38 38 39 34 32 31 28 29 30 29 28 29 26 26 28 26 26 26 25 26 23 23 24 25 23 23 22 23 26 25 25 27 27 27 24 24 24 23 24 27 28 28 29 28 28 29 29 29 29 26 26 26 26 25 25
58 58 58 58 58 58 59 59 59 58 56 55 51 48 46 45 43 42 40 39 39 40 42 42 42 42 41 40 42 36 35 35 36 36 41 36 31 35 31 30 29 29 28 27 29 28 29 29 29 26 27 26 26 26 25 24 24 26 25 25 25 25 26 26 25 26 26 25 25 23 23 23 26 25 28 28 29 28 28 27 27 27 28 28 27 27 27 25
58 58 58 58 58 58 59 59 56 55 54 54 53 53 47 45 43 42 40 38 35 37 42 40 42 42 43 41 41 37 38 38 38 39 41 36 32 31 31 31 30 29 29 28 28 28 29 30 31 28 27 26 27 26 27 27 25 26 27 26 26 27 26 26 26 25 24 23 25 22 20 20 23 24 27 28 28 28 28 26 26 26 26 26 25 26 26 27
58 58 58 58 58 58 59 55 53 55 54 52 52 50 47 45 44 43 38 33 34 36 39 38 43 39 42 37 39 39 39 37 37 39 43 38 40 33 31 30 32 31 29 28 28 29 29 30 31 31 28 27 27 27 28 28 26 25 27 28 27 26 26 26 25 24 21 19 23 24 19 17 23 23 27 28 27 27 27 27 27 26 26 26 26 27 27 26
58 58 58 58 58 59 55 51 53 54 49 50 49 47 46 46 45 43 38 32 31 36 37 40 39 38 38 36 39 39 33 35 37 38 37 40 35 38 32 31 31 30 31 30 31 30 30 29 29 29 28 28 27 26 28 28 27 26 27 28 27 27 26 26 25 25 24 25 26 25 23 19 19 22 26 27 26 26 26 27 26 26 26 26 26 27 26 26
58 58 57 58 58 58 55 53 53 51 49 50 49 48 47 46 45 42 37 31 30 36 34 35 37 39 36 32 38 37 35 36 35 37 36 38 36 33 32 31 31 31 29 32 29 31 30 28 28 28 28 28 28 29 29 30 28 28 28 28 27 27 26 26 25 23 23 22 22 23 24 20 19 22 26 27 25 25 26 25 25 25 26 26 26 26 25 27
58 58 58 58 58 58 57 54 53 51 50 49 48 48 47 46 43 39 36 31 35 34 36 34 39 34 33 33 32 32 31 28 34 34 35 35 36 33 32 31 31 29 28 33 32 30 28 29 29 31 29 28 29 29 30 30 28 27 28 27 27 26 26 25 23 23 21 20 16 20 23 17 20 23 23 24 24 25 25 26 25 26 25 25 25 25 26 26
58 58 58 58 58 57 57 56 54 53 50 49 49 47 47 46 42 37 33 29 36 33 33 34 32 31 33 33 33 29 30 27 31 32 32 33 32 32 29 33 27 28 28 27 27 31 28 33 32 29 29 30 29 29 29 29 28 29 28 27 26 24 24 23 22 20 18 14 19 22 23 20 16 22 22 23 25 25 27 26 26 27 27 27 27 26 25 25
58 58 58 58 56 56 57 54 56 50 50 49 47 47 45 44 39 35 31 36 39 33 31 32 30 33 34 33 33 30 28 28 31 32 31 32 30 29 29 30 30 28 26 27 26 27 27 27 26 28 32 29 28 27 27 28 27 28 26 25 25 23 19 17 12 19 14 13 16 19 22 22 15 18 23 25 26 26 27 26 26 25 25 25 25 26 26 25
57 57 58 57 57 58 55 53 56 50 50 50 49 46 46 38 40 33 33 36 34 34 31 30 29 31 33 29 29 27 28 28 29 32 31 30 30 29 28 30 29 24 25 26 27 25 26 27 29 28 33 29 27 27 26 27 27 27 25 24 18 16 17 11 9 13 13 15 18 21 22 21 20 21 23 25 27 26 27 27 25 24 24 25 25 25 26 25
57 57 57 57 56 56 57 54 53 51 51 52 50 49 42 36 31 38 38 35 33 32 30 31 29 29 31 29 27 26 28 28 28 30 30 29 30 30 30 28 29 28 24 24 27 23 26 26 26 27 28 30 29 25 24 24 25 26 26 23 18 14 13 10 9 4 9 12 18 21 21 18 21 22 25 26 26 27 26 27 28 25 24 24 24 25 25 24
57 57 56 56 57 57 55 54 54 52 52 52 50 45 40 33 33 41 37 35 35 34 31 29 28 29 30 29 28 28 28 27 31 30 31 29 29 29 31 30 28 27 25 24 27 25 18 20 25 27 26 29 29 28 27 26 26 26 25 24 23 17 7 10 5 11 13 14 16 18 11 12 15 18 25 26 26 26 25 26 28 27 25 24 24 25 24 24
56 56 56 56 56 57 54 54 53 53 53 51 47 42 33 33 34 35 35 36 35 35 33 32 29 28 27 27 29 28 29 25 29 29 28 29 28 28 29 30 30 28 26 24 25 21 24 23 25 28 28 28 28 29 28 26 26 24 25 25 21 21 20 15 12 7 5 11 11 13 15 18 19 25 27 25 24 24 25 25 28 26 25 24 24 24 24 24
55 55 56 54 55 56 55 54 54 54 53 49 43 37 34 36 33 35 36 38 36 33 31 31 31 28 27 27 31 27 29 26 27 28 26 28 28 28 28 28 30 28 26 25 24 21 22 21 26 28 28 28 28 29 27 27 23 24 25 20 25 25 22 14 15 12 10 10 17 9 19 22 23 25 25 24 23 23 23 24 25 24 24 24 23 23 23 23
54 54 52 54 54 55 56 54 54 54 52 47 42 36 39 37 40 37 42 37 36 31 30 28 30 26 27 25 27 29 28 33 29 27 25 28 26 28 27 29 31 30 27 28 25 26 23 23 26 27 26 28 29 29 28 29 28 25 20 24 27 26 26 20 15 11 4 11 13 13 16 18 18 17 24 24 23 23 23 23 23 23 24 23 22 23 23 23
52 51 52 52 54 55 55 55 54 53 50 45 40 40 41 39 42 42 40 37 35 34 32 32 34 30 28 27 26 30 31 28 28 25 25 27 25 30 29 28 30 30 28 29 24 27 27 21 25 28 27 29 28 28 28 29 28 25 24 27 23 19 18 22 16 12 11 9 11 13 19 18 19 18 23 24 23 24 23 23 22 22 23 22 22 22 22 23
51 50 47 51 53 54 55 55 54 50 46 41 40 40 41 41 41 40 40 39 40 37 33 36 35 34 33 28 30 32 31 26 28 26 26 27 24 29 28 30 30 30 29 28 26 27 27 22 24 28 28 29 27 28 25 26 28 28 27 25 27 24 22 20 21 18 18 10 8 13 14 16 20 20 23 23 24 24 23 23 22 21 22 22 22 22 22 23
49 46 45 50 53 54 54 54 51 48 44 39 41 41 42 40 41 40 41 40 40 38 38 37 38 36 34 33 33 33 33 31 27 27 28 28 27 31 28 32 30 31 32 29 29 33 26 26 19 25 28 27 26 26 25 26 26 25 25 24 25 21 25 24 19 19 16 7 9 13 15 16 21 22 23 22 24 24 23 23 23 22 22 22 22 22 23 23
47 45 44 50 52 53 53 51 45 42 42 40 41 41 40 40 41 41 41 42 43 44 41 39 39 39 37 35 35 35 33 32 30 28 28 29 28 26 30 31 31 31 33 31 29 31 27 25 24 22 25 25 26 27 27 27 27 26 26 24 25 23 19 17 19 23 17 17 16 12 16 16 24 27 24 24 25 25 24 24 23 22 22 22 23 23 23 23
46 41 43 50 52 52 49 42 42 43 41 41 41 42 40 45 41 41 41 43 42 41 43 41 40 39 37 37 38 34 34 33 32 30 31 29 31 30 32 35 32 34 31 29 28 32 29 28 25 21 25 26 27 28 29 28 29 28 27 25 27 25 24 18 18 20 18 22 19 17 14 20 25 26 26 25 26 25 25 24 23 22 22 22 23 23 24 23
45 42 47 50 52 51 47 41 42 41 41 40 42 41 42 41 41 41 41 42 40 42 41 40 40 39 39 38 37 35 37 33 35 34 34 32 32 33 35 36 36 35 35 32 33 32 33 26 23 25 26 26 27 27 29 29 29 28 27 26 26 25 25 24 23 24 22 20 19 17 19 23 26 27 25 25 25 25 24 24 23 23 23 23 24 24 24 24
43 42 44 49 51 50 45 36 36 39 39 40 40 41 42 41 41 40 41 41 41 41 40 39 39 42 39 39 37 36 38 32 36 35 33 33 32 36 35 35 35 33 32 31 30 35 27 29 28 23 22 23 26 26 26 27 27 26 26 27 26 26 26 24 24 23 20 21 22 21 19 21 26 25 24 25 25 24 24 24 24 23 24 24 24 24 25 25
43 43 44 46 49 47 40 41 39 39 39 38 39 38 39 39 41 42 41 41 42 41 40 39 40 40 39 39 38 38 38 38 34 35 35 33 33 35 34 34 35 33 36 37 37 35 30 30 28 24 23 21 21 21 23 25 27 28 26 27 28 28 26 25 21 20 22 18 21 18 21 24 27 26 25 25 25 25 25 25 25 25 25 25 25 25 26 26
39 35 41 41 45 43 42 42 41 39 39 38 38 39 40 38 40 41 42 41 43 41 41 40 39 39 37 37 36 36 37 37 36 33 34 33 34 33 33 33 33 34 37 38 35 33 30 30 30 28 26 24 24 23 24 28 26 25 24 26 27 27 27 26 21 20 23 20 22 23 24 22 24 25 25 25 25 25 25 25 24 25 25 27 25 26 26 26
40 36 36 33 40 41 39 41 39 39 37 40 35 37 37 38 38 38 42 38 42 41 40 40 39 38 37 37 37 36 37 36 35 34 34 33 33 33 34 33 33 36 37 34 35 32 31 28 30 29 28 28 24 22 24 29 26 26 26 25 26 26 26 26 25 23 23 20 22 26 23 21 25 26 25 25 25 23 25 25 25 25 26 26 26 27 30 26
36 36 39 40 36 33 35 36 40 38 39 39 36 38 36 37 37 35 40 41 40 41 38 38 39 40 38 38 36 33 35 35 34 33 34 33 33 34 34 33 33 34 34 32 33 34 31 30 31 29 28 29 26 26 27 28 27 27 28 28 26 26 24 25 25 24 25 25 23 24 24 24 25 25 26 26 26 25 25 25 26 25 25 24 23 23 24 25
38 34 37 40 36 36 37 37 39 38 37 38 35 36 34 35 36 37 37 37 38 37 40 33 36 38 38 38 37 33 34 32 32 34 33 33 33 32 33 33 33 32 33 31 32 30 31 29 31 29 30 30 28 27 28 27 25 24 24 26 27 26 25 26 26 26 25 26 26 24 24 24 24 25 26 27 27 26 26 25 24 24 24 23 23 22 22 23
34 35 33 36 36 33 34 38 38 38 34 37 33 34 35 34 34 36 37 37 33 36 40 37 36 37 38 37 37 34 34 35 33 32 34 34 33 33 33 34 31 31 31 32 31 32 31 28 32 28 28 28 25 23 24 24 23 23 24 24 24 24 25 25 26 25 24 24 24 24 23 23 24 24 25 23 22 24 24 24 24 24 23 23 22 22 22 23
37 36 36 35 33 32 34 35 36 35 33 35 33 35 35 35 34 36 36 39 36 35 37 37 37 36 36 37 37 36 37 35 35 35 35 35 33 34 34 33 35 30 30 30 29 30 31 29 25 26 28 27 22 24 23 22 23 24 25 26 25 23 23 24 24 24 24 24 24 24 23 23 25 23 24 22 21 21 21 22 22 22 22 22 22 22 22 23
34 34 35 35 32 36 33 33 35 35 31 35 35 35 35 35 35 37 34 37 38 38 38 38 38 37 34 35 35 37 38 37 36 33 34 34 34 33 34 33 35 33 31 32 29 29 30 27 26 23 26 26 22 24 23 22 23 23 24 26 26 24 24 19 23 24 25 25 23 22 23 26 24 22 21 21 21 22 21 21 21 22 22 22 22 22 22 22